This demonstration page uses our WeatherBlox Daily Observations layout. Learn more.

Left ArrowRight Arrow

53.62937, 11.41316

Hourly Observations for April 5, 2018

Temp ( °F °C ) Dew Point ( °F °C ) Humidity (%) Winds ( mph kmh ) Pressure ( in mb ) Visibility ( mi km ) Precip ( " mm )
6:50 am 06:50 Mostly Cloudy with Light Rain 48 9 48 9 100 100 SW 8 13 29.53 1000 30 48 N/A
7:20 am 07:20 Mostly Cloudy 48 9 46 8 94 94 SW 7 11 29.53 1000 30 48 N/A
7:50 am 07:50 Mostly Cloudy 48 9 48 9 100 100 SW 8 13 29.53 1000 30 48 N/A
8:20 am 08:20 Mostly Cloudy 48 9 48 9 100 100 SW 9 15 29.53 1000 30 48 N/A
8:50 am 08:50 Partly Cloudy 50 10 48 9 94 94 SW 10 17 29.56 1001 30 48 N/A
9:20 am 09:20 Mostly Cloudy with Light Rain 48 9 48 9 100 100 SW 12 19 29.56 1001 30 48 N/A
9:50 am 09:50 Mostly Cloudy 50 10 48 9 94 94 SW 9 15 29.56 1001 30 48 N/A
10:20 am 10:20 Mostly Cloudy 52 11 48 9 88 88 SW 10 17 29.56 1001 30 48 N/A
10:50 am 10:50 Mostly Cloudy 50 10 48 9 94 94 SW 12 19 29.59 1002 6 9 N/A
11:20 am 11:20 Mostly Cloudy 50 10 50 10 100 100 SW 10 17 29.59 1002 30 48 N/A
11:50 am 11:50 Mostly Cloudy 52 11 50 10 94 94 SW 10 17 29.59 1002 30 48 N/A
12:20 pm 12:20 Mostly Cloudy 54 12 48 9 82 82 SW 15 24 29.59 1002 30 48 N/A
12:50 pm 12:50 Mostly Cloudy 54 12 48 9 82 82 WSW 14 22 29.62 1003 30 48 N/A
1:20 pm 13:20 Mostly Cloudy with Light Rain 50 10 46 8 88 88 SW 16 26 29.62 1003 30 48 N/A
1:50 pm 13:50 Mostly Cloudy 54 12 45 7 72 72 SW 16 26 29.62 1003 30 48 N/A
2:20 pm 14:20 Mostly Cloudy 52 11 41 5 67 67 WSW 24 39 29.65 1004 30 48 N/A
2:50 pm 14:50 Mostly Cloudy 50 10 41 5 71 71 WSW 18 30 29.65 1004 30 48 N/A
3:20 pm 15:20 Mostly Cloudy 50 10 41 5 71 71 W 15 24 29.68 1005 30 48 N/A
3:50 pm 15:50 Mostly Cloudy 48 9 39 4 71 71 WSW 22 35 29.68 1005 30 48 N/A
4:20 pm 16:20 Mostly Cloudy 48 9 39 4 71 71 WSW 17 28 29.71 1006 30 48 N/A
4:50 pm 16:50 Mostly Cloudy 48 9 39 4 71 71 WSW 17 28 29.71 1006 30 48 N/A
5:20 pm 17:20 Mostly Cloudy 46 8 43 6 87 87 WSW 18 30 29.74 1007 30 48 N/A
5:50 pm 17:50 Mostly Cloudy with Light Rain 45 7 45 7 100 100 W 16 26 29.77 1008 30 48 N/A
6:20 pm 18:20 Mostly Cloudy with Light Rain 41 5 41 5 100 100 W 14 22 29.80 1009 4 7 N/A
6:50 pm 18:50 Mostly Cloudy 41 5 37 3 87 87 WNW 9 15 29.85 1011 30 48 N/A
7:20 pm 19:20 Partly Cloudy 41 5 37 3 87 87 W 12 19 29.85 1011 30 48 N/A
7:50 pm 19:50 Partly Cloudy 41 5 37 3 87 87 WNW 10 17 29.88 1012 30 48 N/A
8:20 pm 20:20 Mostly Clear 41 5 34 1 76 76 W 12 19 29.91 1013 30 48 N/A
8:50 pm 20:50 Mostly Clear 41 5 34 1 76 76 W 12 19 29.94 1014 30 48 N/A

Powered by AerisWeather